GFSFLT1_prec_precacc24_132.txt.gz
Total_Precipitation_Accumulation
0.00 0.00 0.00 0.00 0.00 0.00 0.00 0.00 0.00 0.01 0.08 0.10 0.09 0.11 0.21 0.27 0.17 0.17 0.17 0.27 0.24 0.08 0.01 0.01 0.02 0.03 0.02 0.01 0.02 0.02 0.01 0.03
0.00 0.00 0.00 0.00 0.00 0.00 0.00 0.00 0.00 0.03 0.10 0.11 0.13 0.13 0.13 0.16 0.15 0.14 0.22 0.32 0.37 0.22 0.05 0.02 0.02 0.02 0.01 0.01 0.02 0.03 0.03 0.05
0.00 0.00 0.00 0.00 0.00 0.00 0.00 0.01 0.00 0.01 0.02 0.16 0.21 0.22 0.17 0.15 0.18 0.17 0.25 0.30 0.36 0.31 0.14 0.04 0.01 0.01 0.01 0.01 0.02 0.02 0.04 0.06
0.00 0.00 0.00 0.00 0.00 0.00 0.00 0.01 0.01 0.07 0.16 0.17 0.23 0.26 0.24 0.22 0.19 0.16 0.22 0.30 0.29 0.28 0.26 0.11 0.05 0.02 0.01 0.01 0.01 0.02 0.03 0.04
0.01 0.00 0.00 0.00 0.00 0.00 0.00 0.00 0.04 0.15 0.26 0.09 0.24 0.16 0.12 0.10 0.13 0.14 0.21 0.30 0.29 0.27 0.22 0.17 0.07 0.02 0.01 0.01 0.02 0.03 0.04 0.04
0.04 0.02 0.01 0.01 0.00 0.00 0.00 0.01 0.05 0.13 0.15 0.13 0.26 0.25 0.18 0.11 0.13 0.17 0.21 0.29 0.28 0.32 0.38 0.20 0.09 0.05 0.02 0.01 0.01 0.05 0.05 0.04
0.10 0.10 0.08 0.06 0.04 0.03 0.01 0.02 0.04 0.19 0.27 0.34 0.38 0.45 0.34 0.19 0.12 0.15 0.21 0.31 0.26 0.37 0.49 0.65 0.31 0.06 0.02 0.01 0.01 0.04 0.05 0.06
0.14 0.19 0.27 0.24 0.19 0.15 0.08 0.05 0.10 0.18 0.36 0.47 0.46 0.81 1.03 0.93 0.59 0.32 0.36 0.46 0.35 0.33 0.51 0.80 0.51 0.15 0.04 0.04 0.04 0.04 0.06 0.07
0.27 0.59 0.38 0.30 0.33 0.39 0.30 0.17 0.21 0.23 0.32 0.46 0.50 0.54 0.72 1.33 1.56 1.73 1.25 0.89 0.71 0.62 0.71 0.73 0.78 0.41 0.12 0.09 0.08 0.08 0.08 0.16
0.46 0.54 0.31 0.29 0.78 1.05 0.64 0.47 0.32 0.31 0.29 0.33 0.46 0.46 0.58 1.01 1.60 1.88 2.62 2.43 1.72 1.40 1.27 0.96 0.74 0.69 0.39 0.31 0.16 0.16 0.16 0.17
0.45 0.73 0.31 0.32 1.20 1.01 0.66 0.64 0.60 0.49 0.38 0.34 0.37 0.38 0.48 0.83 1.24 2.12 2.11 2.44 2.91 2.43 1.94 1.62 1.39 1.32 0.90 0.44 0.35 0.32 0.30 0.23
0.52 0.65 0.46 0.34 0.65 1.06 1.03 0.83 1.09 0.94 0.55 0.53 0.44 0.54 0.53 0.69 0.84 1.05 1.81 1.70 1.71 2.50 2.71 2.23 1.99 1.43 1.03 0.76 0.53 0.37 0.30 0.30
0.80 0.64 0.61 0.58 0.43 0.51 1.09 1.20 1.46 1.44 1.12 1.01 0.66 0.57 0.70 0.65 0.71 0.82 0.76 1.01 1.38 1.49 1.95 2.38 1.96 1.74 1.11 0.68 0.55 0.51 0.51 0.46
0.93 0.76 0.50 0.60 0.46 0.85 0.86 0.96 0.90 1.23 1.50 1.60 0.93 0.83 0.49 0.48 0.64 0.78 0.67 0.60 0.62 0.89 1.22 1.45 1.53 1.83 1.57 0.88 0.59 0.43 0.45 0.56
0.72 0.69 0.61 0.44 0.36 0.56 0.36 0.28 0.43 0.70 0.87 1.16 1.15 0.76 0.64 0.53 0.41 0.56 0.62 0.57 0.61 0.56 0.67 0.98 1.21 1.05 1.07 1.09 1.09 0.81 0.38 0.34
0.27 0.37 0.47 0.43 0.27 0.20 0.15 0.06 0.03 0.12 0.22 0.25 0.59 0.91 0.59 0.49 0.41 0.36 0.39 0.43 0.47 0.54 0.58 0.62 0.78 1.01 0.97 0.82 0.82 0.76 0.49 0.39
0.02 0.05 0.12 0.18 0.09 0.05 0.01 0.01 0.00 0.00 0.01 0.03 0.05 0.14 0.22 0.34 0.35 0.32 0.34 0.34 0.37 0.41 0.42 0.48 0.50 0.51 0.86 0.86 0.76 0.69 0.66 0.69
0.03 0.04 0.04 0.05 0.03 0.01 0.01 0.00 0.00 0.00 0.00 0.00 0.00 0.01 0.06 0.09 0.12 0.29 0.41 0.48 0.54 0.52 0.59 0.55 0.39 0.33 0.47 0.48 0.53 0.42 0.41 0.47
0.02 0.03 0.03 0.02 0.01 0.00 0.00 0.00 0.00 0.00 0.00 0.01 0.00 0.00 0.01 0.04 0.06 0.15 0.47 0.78 0.67 0.49 0.48 0.49 0.52 0.50 0.45 0.43 0.49 0.45 0.42 0.36

GFSFLT1_prec_precacc24_135.txt.gz
Total_Precipitation_Accumulation
0.00 0.00 0.00 0.00 0.00 0.00 0.00 0.00 0.00 0.01 0.08 0.10 0.09 0.11 0.21 0.27 0.17 0.17 0.17 0.28 0.35 0.31 0.24 0.18 0.10 0.07 0.05 0.05 0.05 0.03 0.01 0.02
0.00 0.00 0.00 0.00 0.00 0.00 0.00 0.00 0.00 0.03 0.10 0.11 0.13 0.13 0.13 0.16 0.15 0.14 0.22 0.33 0.40 0.39 0.36 0.29 0.16 0.07 0.03 0.06 0.09 0.06 0.03 0.05
0.00 0.00 0.00 0.00 0.00 0.00 0.00 0.01 0.00 0.01 0.02 0.16 0.21 0.22 0.17 0.15 0.18 0.17 0.25 0.30 0.39 0.40 0.37 0.34 0.22 0.08 0.08 0.09 0.05 0.04 0.05 0.09
0.00 0.00 0.00 0.00 0.00 0.00 0.00 0.01 0.01 0.07 0.15 0.17 0.22 0.26 0.22 0.21 0.19 0.16 0.22 0.30 0.32 0.33 0.40 0.36 0.43 0.32 0.10 0.06 0.05 0.05 0.04 0.06
0.01 0.00 0.00 0.00 0.00 0.00 0.00 0.00 0.04 0.15 0.22 0.06 0.21 0.16 0.12 0.10 0.13 0.14 0.21 0.30 0.29 0.29 0.29 0.52 0.50 0.54 0.18 0.07 0.08 0.08 0.08 0.05
0.04 0.02 0.01 0.01 0.00 0.00 0.00 0.00 0.04 0.11 0.14 0.09 0.18 0.22 0.16 0.11 0.11 0.16 0.21 0.29 0.28 0.32 0.40 0.30 0.66 0.94 0.63 0.19 0.12 0.11 0.07 0.05
0.10 0.10 0.08 0.06 0.04 0.03 0.01 0.02 0.03 0.17 0.23 0.31 0.37 0.45 0.34 0.18 0.11 0.14 0.21 0.31 0.26 0.37 0.50 0.70 0.60 0.68 0.87 0.39 0.17 0.14 0.09 0.09
0.14 0.19 0.27 0.24 0.19 0.15 0.08 0.05 0.10 0.17 0.36 0.45 0.43 0.77 1.04 0.95 0.61 0.33 0.36 0.46 0.35 0.33 0.50 0.83 0.96 0.76 0.82 0.80 0.41 0.19 0.14 0.10
0.27 0.59 0.38 0.30 0.33 0.39 0.30 0.18 0.22 0.24 0.32 0.46 0.48 0.52 0.72 1.31 1.59 1.74 1.26 0.90 0.71 0.62 0.71 0.73 0.84 0.67 0.72 0.74 0.67 0.31 0.16 0.13
0.46 0.54 0.31 0.29 0.78 1.06 0.65 0.49 0.34 0.32 0.30 0.33 0.46 0.46 0.57 1.01 1.59 1.88 2.62 2.44 1.72 1.39 1.27 0.96 0.75 0.79 0.83 0.85 0.68 0.59 0.28 0.17
0.44 0.73 0.31 0.32 1.20 1.01 0.66 0.65 0.61 0.50 0.39 0.35 0.39 0.39 0.48 0.82 1.24 2.13 2.11 2.43 2.91 2.42 1.94 1.62 1.40 1.42 1.23 0.87 0.77 0.82 0.53 0.31
0.45 0.63 0.46 0.34 0.65 1.06 1.03 0.83 1.09 0.97 0.56 0.54 0.45 0.56 0.53 0.69 0.84 1.06 1.83 1.69 1.68 2.48 2.71 2.23 1.99 1.48 1.35 1.28 0.94 0.63 0.48 0.38
0.78 0.62 0.60 0.58 0.43 0.51 1.09 1.20 1.47 1.51 1.19 1.03 0.67 0.65 0.78 0.70 0.80 0.88 0.79 0.99 1.32 1.44 1.94 2.38 1.96 1.79 1.36 1.12 1.06 1.06 0.89 0.67
0.93 0.76 0.50 0.60 0.46 0.85 0.86 0.96 0.89 1.27 1.68 1.81 1.04 1.05 0.65 0.78 0.98 1.05 0.78 0.62 0.60 0.84 1.20 1.44 1.53 1.88 1.72 1.44 1.19 0.92 0.89 0.83
0.72 0.69 0.61 0.44 0.36 0.56 0.36 0.28 0.42 0.68 0.94 1.47 1.52 1.30 1.36 1.03 0.81 0.95 1.03 0.70 0.67 0.58 0.65 0.97 1.26 1.30 1.55 1.67 1.75 1.45 1.13 0.90
0.27 0.37 0.47 0.43 0.27 0.20 0.15 0.06 0.03 0.11 0.21 0.30 0.82 1.49 1.29 1.17 0.99 0.80 0.65 0.61 0.75 0.59 0.57 0.62 0.80 1.16 1.34 1.35 1.41 1.53 1.50 1.46
0.02 0.05 0.12 0.18 0.09 0.05 0.01 0.01 0.00 0.00 0.00 0.02 0.04 0.11 0.30 0.54 0.61 0.50 0.23 0.26 0.24 0.31 0.41 0.48 0.53 0.60 1.04 1.15 1.27 1.25 1.20 1.27
0.03 0.04 0.04 0.05 0.03 0.01 0.01 0.00 0.00 0.00 0.00 0.00 0.00 0.00 0.00 0.00 0.04 0.05 0.09 0.15 0.24 0.31 0.50 0.53 0.43 0.43 0.55 0.60 0.78 0.87 0.91 0.97
0.02 0.02 0.03 0.02 0.01 0.00 0.00 0.00 0.00 0.00 0.00 0.00 0.00 0.00 0.00 0.00 0.00 0.02 0.04 0.05 0.09 0.22 0.37 0.46 0.52 0.50 0.45 0.44 0.50 0.47 0.46 0.39

GFSFLT1_prec_precacc24_138.txt.gz
Total_Precipitation_Accumulation
0.00 0.00 0.00 0.00 0.00 0.00 0.00 0.00 0.00 0.01 0.07 0.09 0.09 0.11 0.21 0.27 0.17 0.17 0.17 0.28 0.35 0.31 0.27 0.30 0.28 0.19 0.12 0.08 0.09 0.08 0.04 0.03
0.00 0.00 0.00 0.00 0.00 0.00 0.00 0.00 0.00 0.03 0.10 0.11 0.13 0.13 0.13 0.16 0.15 0.14 0.22 0.33 0.40 0.39 0.37 0.39 0.44 0.45 0.31 0.11 0.13 0.12 0.06 0.10
0.00 0.00 0.00 0.00 0.00 0.00 0.00 0.01 0.00 0.00 0.02 0.14 0.20 0.22 0.17 0.15 0.18 0.17 0.25 0.30 0.39 0.40 0.37 0.36 0.41 0.60 0.72 0.45 0.11 0.05 0.08 0.16
0.00 0.00 0.00 0.00 0.00 0.00 0.00 0.01 0.01 0.05 0.13 0.14 0.19 0.25 0.22 0.20 0.19 0.16 0.22 0.30 0.32 0.33 0.40 0.36 0.48 0.67 0.79 0.65 0.22 0.07 0.05 0.12
0.01 0.00 0.00 0.00 0.00 0.00 0.00 0.00 0.04 0.15 0.22 0.05 0.19 0.15 0.12 0.10 0.13 0.13 0.21 0.30 0.29 0.29 0.29 0.52 0.51 0.73 0.94 0.82 0.65 0.28 0.19 0.12
0.04 0.02 0.01 0.01 0.00 0.00 0.00 0.00 0.04 0.11 0.14 0.08 0.18 0.21 0.13 0.10 0.11 0.15 0.18 0.28 0.28 0.32 0.40 0.30 0.66 0.95 0.98 1.01 1.10 0.72 0.27 0.18
0.10 0.10 0.08 0.06 0.04 0.03 0.01 0.01 0.03 0.16 0.22 0.29 0.37 0.45 0.35 0.19 0.11 0.14 0.20 0.30 0.26 0.37 0.50 0.70 0.60 0.68 0.94 0.95 1.06 0.91 0.57 0.31
0.14 0.19 0.27 0.24 0.19 0.15 0.08 0.05 0.10 0.17 0.34 0.43 0.41 0.76 1.04 0.95 0.61 0.34 0.37 0.47 0.36 0.33 0.51 0.82 0.96 0.76 0.81 0.88 0.84 1.07 0.77 0.43
0.26 0.58 0.38 0.30 0.33 0.39 0.30 0.18 0.21 0.23 0.31 0.43 0.47 0.51 0.72 1.32 1.59 1.76 1.27 0.91 0.72 0.62 0.71 0.73 0.84 0.67 0.71 0.74 0.86 0.86 0.90 0.86
0.44 0.53 0.31 0.29 0.78 1.06 0.65 0.49 0.34 0.32 0.30 0.33 0.46 0.47 0.58 1.01 1.57 1.85 2.59 2.41 1.72 1.37 1.25 0.96 0.75 0.79 0.82 0.85 0.68 0.78 0.74 0.66
0.42 0.71 0.30 0.31 1.19 1.01 0.66 0.65 0.61 0.50 0.40 0.36 0.40 0.40 0.50 0.84 1.24 2.14 2.12 2.44 2.90 2.43 1.92 1.61 1.39 1.42 1.23 0.87 0.77 0.84 0.85 0.70
0.43 0.61 0.40 0.33 0.65 1.06 1.03 0.83 1.09 0.97 0.57 0.56 0.47 0.59 0.57 0.70 0.86 1.11 1.91 1.77 1.76 2.52 2.70 2.22 1.98 1.47 1.35 1.28 0.94 0.68 0.69 0.87
0.61 0.50 0.53 0.51 0.42 0.51 1.09 1.20 1.47 1.51 1.20 1.06 0.70 0.69 0.82 0.72 0.83 0.92 0.88 1.07 1.36 1.43 1.89 2.35 1.94 1.76 1.34 1.11 1.05 1.08 1.04 0.93
0.82 0.62 0.45 0.59 0.46 0.85 0.86 0.96 0.89 1.27 1.68 1.83 1.06 1.08 0.71 0.89 1.08 1.09 0.89 0.75 0.73 0.90 1.21 1.43 1.52 1.85 1.69 1.46 1.19 0.92 0.93 0.94
0.71 0.68 0.60 0.44 0.36 0.56 0.36 0.28 0.42 0.68 0.94 1.46 1.56 1.40 1.52 1.24 1.03 1.22 1.25 0.87 0.88 0.70 0.67 0.94 1.23 1.29 1.59 1.72 1.81 1.50 1.17 0.98
0.27 0.37 0.46 0.43 0.27 0.20 0.15 0.06 0.03 0.11 0.21 0.29 0.82 1.54 1.44 1.40 1.37 1.46 1.33 1.21 1.25 0.91 0.76 0.65 0.78 1.11 1.34 1.43 1.50 1.62 1.57 1.57
0.02 0.05 0.12 0.18 0.09 0.05 0.01 0.01 0.00 0.00 0.00 0.02 0.04 0.11 0.31 0.59 0.72 0.63 0.47 0.81 1.08 0.77 0.80 0.50 0.45 0.55 0.97 1.16 1.30 1.30 1.24 1.38
0.02 0.03 0.03 0.04 0.03 0.01 0.01 0.00 0.00 0.00 0.00 0.00 0.00 0.00 0.00 0.01 0.06 0.09 0.15 0.13 0.19 0.22 0.27 0.25 0.21 0.30 0.42 0.44 0.72 0.88 0.96 1.08
0.01 0.02 0.02 0.01 0.01 0.00 0.00 0.00 0.00 0.00 0.00 0.00 0.00 0.00 0.00 0.00 0.00 0.00 0.01 0.01 0.02 0.02 0.04 0.07 0.11 0.18 0.28 0.29 0.43 0.47 0.48 0.44

GFSFLT1_prec_precacc24_144.txt.gz
Total_Precipitation_Accumulation
0.00 0.00 0.00 0.00 0.00 0.00 0.00 0.00 0.00 0.01 0.07 0.09 0.08 0.11 0.21 0.27 0.17 0.17 0.17 0.28 0.35 0.31 0.27 0.30 0.28 0.20 0.21 0.36 0.35 0.29 0.18 0.08
0.00 0.00 0.00 0.00 0.00 0.00 0.00 0.00 0.00 0.02 0.10 0.11 0.12 0.11 0.13 0.16 0.15 0.14 0.22 0.33 0.40 0.39 0.37 0.39 0.44 0.45 0.37 0.33 0.42 0.54 0.32 0.31
0.00 0.00 0.00 0.00 0.00 0.00 0.00 0.00 0.00 0.00 0.02 0.07 0.14 0.19 0.17 0.15 0.18 0.17 0.25 0.30 0.39 0.40 0.38 0.36 0.42 0.61 0.73 0.77 0.73 0.69 0.41 0.44
0.00 0.00 0.00 0.00 0.00 0.00 0.00 0.00 0.00 0.00 0.00 0.03 0.14 0.22 0.21 0.20 0.19 0.17 0.22 0.30 0.32 0.34 0.40 0.37 0.49 0.68 0.80 0.76 0.82 0.86 0.88 0.83
0.01 0.00 0.00 0.00 0.00 0.00 0.00 0.00 0.00 0.01 0.01 0.03 0.14 0.13 0.11 0.11 0.13 0.14 0.21 0.30 0.30 0.29 0.29 0.52 0.51 0.73 0.95 0.86 0.76 0.66 0.76 0.77
0.02 0.01 0.01 0.01 0.00 0.00 0.00 0.00 0.00 0.04 0.09 0.05 0.14 0.19 0.11 0.10 0.11 0.15 0.18 0.26 0.28 0.33 0.40 0.30 0.66 0.95 0.98 1.01 1.13 1.00 0.72 0.63
0.03 0.04 0.04 0.04 0.03 0.02 0.01 0.01 0.02 0.03 0.09 0.16 0.21 0.31 0.33 0.20 0.12 0.14 0.20 0.30 0.26 0.38 0.50 0.71 0.61 0.69 0.94 0.95 1.06 0.99 1.01 0.86
0.03 0.08 0.16 0.15 0.14 0.12 0.08 0.04 0.08 0.09 0.19 0.21 0.29 0.57 0.92 0.96 0.62 0.35 0.37 0.45 0.35 0.33 0.51 0.83 0.97 0.76 0.82 0.88 0.84 1.08 0.92 0.83
0.11 0.39 0.29 0.20 0.26 0.35 0.27 0.17 0.21 0.22 0.27 0.31 0.40 0.43 0.70 1.32 1.60 1.75 1.24 0.90 0.72 0.60 0.65 0.65 0.78 0.64 0.71 0.74 0.86 0.85 0.91 0.95
0.31 0.40 0.22 0.21 0.70 1.01 0.55 0.44 0.33 0.32 0.30 0.31 0.45 0.45 0.57 0.99 1.52 1.77 2.54 2.36 1.65 1.26 1.09 0.86 0.68 0.73 0.79 0.83 0.69 0.78 0.74 0.69
0.33 0.64 0.24 0.26 1.14 0.96 0.62 0.61 0.58 0.49 0.39 0.36 0.40 0.40 0.48 0.80 1.13 2.04 1.99 2.36 2.80 2.27 1.75 1.49 1.35 1.21 0.98 0.70 0.67 0.78 0.83 0.71
0.19 0.51 0.38 0.32 0.63 1.04 1.00 0.81 1.08 0.96 0.57 0.56 0.48 0.59 0.57 0.69 0.85 1.09 1.88 1.73 1.71 2.38 2.52 2.10 1.99 1.37 1.12 1.09 0.85 0.66 0.70 0.88
0.23 0.28 0.45 0.48 0.39 0.51 1.09 1.17 1.44 1.50 1.20 1.06 0.71 0.70 0.83 0.75 0.89 0.99 0.94 1.19 1.33 1.33 1.84 2.33 2.00 1.75 1.27 1.03 0.99 1.05 1.01 0.91
0.27 0.19 0.17 0.45 0.36 0.82 0.86 0.96 0.88 1.25 1.68 1.82 1.06 1.08 0.72 0.94 1.17 1.22 1.10 0.95 0.85 0.99 1.24 1.45 1.54 1.84 1.62 1.40 1.14 0.90 0.93 0.94
0.28 0.34 0.26 0.27 0.24 0.48 0.33 0.28 0.42 0.68 0.94 1.46 1.56 1.40 1.53 1.28 1.09 1.36 1.51 1.23 1.16 1.07 1.03 1.23 1.42 1.39 1.60 1.72 1.79 1.52 1.21 1.00
0.12 0.20 0.24 0.25 0.19 0.18 0.13 0.05 0.03 0.11 0.21 0.29 0.82 1.54 1.44 1.40 1.39 1.54 1.52 1.61 1.74 1.47 1.32 1.01 0.97 1.30 1.56 1.55 1.69 1.73 1.66 1.66
0.01 0.03 0.08 0.12 0.05 0.03 0.01 0.00 0.00 0.00 0.00 0.02 0.04 0.11 0.31 0.59 0.72 0.65 0.53 0.93 1.21 1.02 1.21 0.79 0.77 0.74 1.06 1.42 1.64 1.76 1.59 1.44
0.00 0.01 0.01 0.02 0.01 0.00 0.00 0.00 0.00 0.00 0.00 0.00 0.00 0.00 0.00 0.01 0.06 0.09 0.16 0.15 0.24 0.31 0.44 0.39 0.33 0.31 0.29 0.43 0.76 1.10 1.37 1.48
0.00 0.00 0.00 0.00 0.00 0.00 0.00 0.00 0.00 0.00 0.00 0.00 0.00 0.00 0.00 0.00 0.00 0.00 0.00 0.01 0.01 0.04 0.08 0.09 0.06 0.04 0.03 0.03 0.07 0.12 0.19 0.27

GFSFLT1_prec_precacc24_147.txt.gz
Total_Precipitation_Accumulation
0.00 0.00 0.00 0.00 0.00 0.00 0.00 0.00 0.00 0.00 0.03 0.08 0.08 0.11 0.21 0.27 0.17 0.17 0.17 0.28 0.35 0.31 0.27 0.30 0.28 0.19 0.20 0.36 0.35 0.28 0.19 0.09
0.00 0.00 0.00 0.00 0.00 0.00 0.00 0.00 0.00 0.00 0.01 0.06 0.11 0.11 0.13 0.16 0.15 0.14 0.22 0.32 0.40 0.39 0.37 0.39 0.44 0.45 0.37 0.33 0.42 0.54 0.32 0.32
0.00 0.00 0.00 0.00 0.00 0.00 0.00 0.00 0.00 0.00 0.00 0.03 0.11 0.19 0.17 0.15 0.18 0.17 0.25 0.30 0.39 0.40 0.38 0.37 0.42 0.61 0.73 0.77 0.72 0.69 0.41 0.44
0.00 0.00 0.00 0.00 0.00 0.00 0.00 0.00 0.00 0.00 0.00 0.01 0.07 0.21 0.21 0.20 0.19 0.17 0.22 0.30 0.32 0.34 0.40 0.37 0.49 0.68 0.81 0.76 0.82 0.86 0.89 0.84
0.00 0.00 0.00 0.00 0.00 0.00 0.00 0.00 0.00 0.00 0.00 0.01 0.08 0.11 0.11 0.11 0.13 0.14 0.21 0.30 0.30 0.29 0.30 0.52 0.52 0.74 0.96 0.86 0.76 0.66 0.77 0.78
0.00 0.00 0.00 0.00 0.00 0.00 0.00 0.00 0.00 0.00 0.00 0.01 0.07 0.12 0.11 0.10 0.11 0.15 0.18 0.26 0.28 0.33 0.41 0.31 0.67 0.96 0.99 1.02 1.14 1.00 0.72 0.65
0.00 0.00 0.00 0.00 0.00 0.00 0.00 0.00 0.00 0.00 0.00 0.02 0.09 0.14 0.17 0.12 0.11 0.14 0.20 0.30 0.26 0.38 0.50 0.71 0.61 0.69 0.95 0.96 1.07 0.99 1.01 0.87
0.00 0.01 0.02 0.04 0.03 0.02 0.02 0.02 0.01 0.01 0.02 0.03 0.11 0.21 0.32 0.44 0.31 0.25 0.35 0.43 0.35 0.33 0.51 0.83 0.97 0.76 0.82 0.88 0.84 1.08 0.93 0.84
0.01 0.05 0.07 0.07 0.09 0.14 0.13 0.11 0.10 0.07 0.05 0.06 0.08 0.16 0.31 0.86 0.91 1.07 1.15 0.90 0.72 0.60 0.63 0.64 0.78 0.63 0.70 0.73 0.86 0.86 0.92 0.98
0.05 0.14 0.10 0.09 0.39 0.74 0.34 0.31 0.22 0.15 0.13 0.09 0.12 0.18 0.31 0.57 1.30 1.44 2.40 2.34 1.65 1.25 1.07 0.83 0.64 0.64 0.69 0.75 0.68 0.77 0.74 0.71
0.09 0.22 0.11 0.16 0.86 0.87 0.48 0.45 0.48 0.38 0.24 0.20 0.20 0.20 0.27 0.44 0.80 1.90 1.95 2.35 2.80 2.26 1.74 1.46 1.30 1.14 0.86 0.62 0.58 0.68 0.76 0.68
0.06 0.27 0.22 0.22 0.52 0.94 0.86 0.68 0.98 0.91 0.52 0.50 0.39 0.44 0.37 0.33 0.51 0.96 1.84 1.71 1.69 2.36 2.49 2.07 2.00 1.42 1.10 1.01 0.73 0.55 0.61 0.79
0.08 0.16 0.30 0.37 0.31 0.45 0.88 0.90 1.22 1.35 1.17 1.05 0.70 0.67 0.67 0.64 0.78 0.94 0.92 1.17 1.31 1.33 1.83 2.33 2.04 1.95 1.35 1.05 0.93 0.98 1.00 0.94
0.07 0.08 0.10 0.38 0.31 0.77 0.77 0.80 0.62 0.95 1.56 1.81 1.06 1.08 0.71 0.93 1.17 1.22 1.10 0.98 0.90 1.03 1.25 1.48 1.58 1.97 1.76 1.57 1.18 0.89 0.97 0.93
0.11 0.12 0.12 0.15 0.17 0.44 0.31 0.27 0.38 0.62 0.90 1.45 1.55 1.40 1.53 1.27 1.09 1.37 1.51 1.24 1.18 1.11 1.12 1.31 1.47 1.43 1.65 1.79 1.85 1.53 1.17 0.96
0.03 0.06 0.08 0.10 0.09 0.10 0.10 0.04 0.03 0.10 0.21 0.29 0.81 1.54 1.45 1.40 1.39 1.54 1.52 1.61 1.74 1.48 1.34 1.06 1.03 1.36 1.68 1.62 1.73 1.75 1.66 1.64
0.00 0.01 0.02 0.02 0.01 0.01 0.01 0.00 0.00 0.00 0.00 0.02 0.04 0.11 0.31 0.59 0.72 0.65 0.53 0.93 1.21 1.02 1.21 0.80 0.79 0.76 1.08 1.45 1.65 1.78 1.62 1.47
0.00 0.00 0.00 0.01 0.01 0.00 0.00 0.00 0.00 0.00 0.00 0.00 0.00 0.00 0.00 0.01 0.06 0.09 0.16 0.15 0.24 0.31 0.44 0.39 0.33 0.32 0.29 0.43 0.75 1.10 1.37 1.46
0.00 0.00 0.00 0.00 0.00 0.00 0.00 0.00 0.00 0.00 0.00 0.00 0.00 0.00 0.00 0.00 0.00 0.00 0.00 0.00 0.01 0.03 0.08 0.09 0.06 0.04 0.03 0.03 0.07 0.12 0.19 0.27